Weather History for Fort Myers, FL

Change the Weather History Date:

Saturday, April 20, 2013

  Actual Average Record
Temperature  
Mean Temperature 80 °F 74 °F  
Max Temperature 89 °F 85 °F 94 °F (1944)
Min Temperature 70 °F 64 °F 51 °F (1983)
Degree Days  
Heating Degree Days 0 0  
Month to date heating degree days 0 0  
Since 1 July heating degree days 201 284  
Cooling Degree Days 15 9  
Month to date cooling degree days 243 164  
Year to date cooling degree days 625 525  
Growing Degree Days 29 (Base 50)    
Moisture  
Dew Point 70 °F    
Average Humidity 79    
Maximum Humidity 94    
Minimum Humidity 50    
Precipitation  
Precipitation 0.08 in 0.07 in 2.25 in (1905)
Month to date precipitation 1.93 1.49  
Year to date precipitation 5.19 8.46  
Sea Level Pressure  
Sea Level Pressure 30.02 in    
Wind  
Wind Speed 5 mph (NE)    
Max Wind Speed 17 mph    
Max Gust Speed 23 mph    
Visibility 10 miles    
Events Rain , Thunderstorm    
T = Trace of Precipitation, MM = Missing Value Source: NWS Daily Summary

Daily Weather History Graph

Daily Weather History Graph

Search for Another Location

Airport:

Trip Planner

Search our weather history database for the weather conditions in past years. The results will help you decide how hot, cold, wet, or windy it might be!

Date:

Astronomy

Apr. 20, 2013 Rise Set
Actual Time 6:58 AM EDT 7:54 PM EDT
Civil Twilight 6:34 AM EDT 8:18 PM EDT
Nautical Twilight 6:06 AM EDT 8:46 PM EDT
Astronomical Twilight 5:37 AM EDT 9:15 PM EDT
Moon 3:04 PM EDT (4/20) 3:17 AM EDT (4/20)
Length of Visible Light 13h 43m
Length of Day
12h 55m
Waxing Gibbous, 71% of the Moon is Illuminated
Apr 20
Waxing Gibbous
Apr 25
Full
May 2
Last Quarter
May 9
New
May 18
First Quarter

Hourly Weather History & Observations

Time (EDT) Temp. Heat Index Dew Point Humidity Pressure Visibility Wind Dir Wind Speed Gust Speed Precip Events Conditions
12:40 AM 75.2 °F - 71.6 °F 89% 30.02 in 10.0 mi Calm Calm - N/A   Scattered Clouds
12:53 AM 75.0 °F - 71.1 °F 87% 30.02 in 10.0 mi SE 3.5 mph - N/A   Scattered Clouds
1:53 AM 75.0 °F - 70.0 °F 84% 30.00 in 10.0 mi Calm Calm - N/A   Partly Cloudy
2:53 AM 73.9 °F - 70.0 °F 87% 29.99 in 10.0 mi Calm Calm - N/A   Scattered Clouds
3:02 AM 73.4 °F - 71.6 °F 94% 29.98 in 10.0 mi Calm Calm - N/A   Mostly Cloudy
3:38 AM 73.4 °F - 71.6 °F 94% 29.98 in 10.0 mi Calm Calm - N/A   Scattered Clouds
3:53 AM 73.9 °F - 71.1 °F 91% 29.99 in 10.0 mi SSE 3.5 mph - N/A   Clear
4:53 AM 73.0 °F - 70.0 °F 90% 29.99 in 10.0 mi Calm Calm - N/A   Scattered Clouds
5:04 AM 71.6 °F - 69.8 °F 94% 29.98 in 10.0 mi Calm Calm - N/A   Mostly Cloudy
5:39 AM 73.4 °F - 71.6 °F 94% 29.98 in 10.0 mi Calm Calm - N/A   Partly Cloudy
5:53 AM 73.0 °F - 71.1 °F 93% 29.98 in 10.0 mi Calm Calm - N/A   Partly Cloudy
6:53 AM 71.1 °F - 69.1 °F 93% 29.99 in 10.0 mi Calm Calm - N/A   Clear
7:35 AM 71.6 °F - 69.8 °F 94% 29.99 in 9.0 mi ESE 3.5 mph - N/A   Mostly Cloudy
7:53 AM 73.0 °F - 71.1 °F 93% 30.01 in 9.0 mi Calm Calm - N/A   Overcast
8:53 AM 75.9 °F - 73.0 °F 91% 30.01 in 10.0 mi Calm Calm - N/A   Mostly Cloudy
9:36 AM 78.8 °F - 73.4 °F 83% 30.01 in 10.0 mi Calm Calm - N/A   Mostly Cloudy
9:53 AM 81.0 °F 85.8 °F 73.0 °F 77% 30.02 in 10.0 mi SW 4.6 mph - N/A   Scattered Clouds
10:53 AM 82.9 °F 87.5 °F 71.1 °F 67% 30.03 in 10.0 mi WNW 10.4 mph - N/A   Scattered Clouds
11:53 AM 84.9 °F 90.1 °F 71.1 °F 63% 30.03 in 10.0 mi NW 5.8 mph - N/A   Scattered Clouds
12:53 PM 86.0 °F 90.1 °F 69.1 °F 57% 30.04 in 10.0 mi North 11.5 mph - N/A   Scattered Clouds
1:01 PM 84.2 °F 88.4 °F 69.8 °F 62% 30.03 in 10.0 mi North 13.8 mph 23.0 mph N/A Thunderstorm Mostly Cloudy
1:16 PM 86.0 °F 90.4 °F 69.8 °F 58% 30.03 in 10.0 mi North 10.4 mph - N/A   Scattered Clouds
1:53 PM 87.1 °F 91.3 °F 69.1 °F 55% 30.03 in 10.0 mi NE 4.6 mph - N/A   Clear
2:53 PM 87.1 °F 89.9 °F 66.9 °F 51% 29.99 in 10.0 mi Variable 3.5 mph - N/A   Scattered Clouds
3:53 PM 87.1 °F 89.9 °F 66.9 °F 51% 29.98 in 10.0 mi NW 5.8 mph - N/A   Partly Cloudy
4:53 PM 86.0 °F 88.2 °F 66.0 °F 51% 29.97 in 10.0 mi NNW 6.9 mph - N/A   Partly Cloudy
5:53 PM 84.9 °F 86.6 °F 64.9 °F 51% 29.99 in 10.0 mi NNW 10.4 mph - N/A   Scattered Clouds
6:53 PM 82.0 °F 84.5 °F 66.9 °F 60% 30.00 in 10.0 mi NNE 15.0 mph - N/A   Partly Cloudy
7:53 PM 80.1 °F 82.7 °F 68.0 °F 67% 30.02 in 10.0 mi NNE 11.5 mph - N/A   Scattered Clouds
8:30 PM 77.0 °F - 69.8 °F 78% 30.04 in 10.0 mi ESE 9.2 mph - N/A   Overcast
8:53 PM 75.9 °F - 68.0 °F 76% 30.06 in 10.0 mi East 8.1 mph - N/A   Overcast
9:23 PM 75.2 °F - 69.8 °F 83% 30.07 in 10.0 mi East 9.2 mph - N/A   Overcast
9:53 PM 73.0 °F - 69.1 °F 87% 30.09 in 10.0 mi East 9.2 mph - 0.00 in Rain Light Rain
10:13 PM 73.4 °F - 69.8 °F 88% 30.08 in 6.0 mi ENE 10.4 mph - 0.01 in Rain , Thunderstorm Rain
10:53 PM 72.0 °F - 69.1 °F 91% 30.11 in 10.0 mi East 5.8 mph - 0.02 in   Overcast
11:14 PM 71.6 °F - 69.8 °F 94% 30.11 in 10.0 mi ENE 8.1 mph - N/A   Overcast
11:40 PM 71.6 °F - 69.8 °F 94% 30.13 in 10.0 mi NNE 8.1 mph - 0.00 in   Overcast
11:53 PM 71.1 °F - 69.1 °F 93% 30.13 in 10.0 mi NNE 9.2 mph - 0.00 in   Overcast